Overview Statistics Trail Chart Weather Telemetry Raw packets
 

This is the latest recevied weather packets stored in our database for station/object K5BOU. If no packets are shown the sender has not sent any weather packets the latest 10 day(s).

<< 18 19 20 21 22 23 24 >>
Time Temp. Humidity Pressure Rain* Wind** Luminosity Snow
1788539498 24.44° C 99% 1013.8 hPa 0 mm - 46 W/m² -
1788539197 25° C 99% 1013.4 hPa 0 mm - 47 W/m² -
1788538892 25.56° C 96% 1013.6 hPa 0 mm - 36 W/m² -
1788538587 25° C 94% 1013.8 hPa 0 mm - 32 W/m² -
1788538282 25° C 99% 1014 hPa 16.76 mm - 25 W/m² -
1788537978 25.56° C 99% 1013.8 hPa 13.72 mm - 35 W/m² -
1788537674 25.56° C 99% 1013.5 hPa 10.67 mm - 42 W/m² -
1788537368 25.56° C 98% 1013.3 hPa 21.59 mm - 30 W/m² -
1788537062 26.11° C 95% 1013.2 hPa 13.72 mm - 26 W/m² -
1788536756 26.67° C 92% 1013.1 hPa 4.32 mm - 25 W/m² -
1788536451 28.89° C 86% 1013.1 hPa 0 mm - 23 W/m² -
1788536150 28.89° C 85% 1012.9 hPa 0 mm - 31 W/m² -
1788535847 30° C 89% 1012.6 hPa 0 mm - 73 W/m² -
1788535542 30.56° C 87% 1012.6 hPa 0 mm - 96 W/m² -
1788535238 30.56° C 86% 1012.7 hPa 0 mm - 88 W/m² -
1788534932 31.11° C 85% 1012.9 hPa 0 mm - 69 W/m² -
1788534627 31.67° C 85% 1012.7 hPa 0 mm - 66 W/m² -
1788534326 31.11° C 86% 1012.5 hPa 0 mm - 591 W/m² -
1788534021 31.11° C 86% 1012.6 hPa 0 mm - 174 W/m² -
1788533716 31.67° C 83% 1012.6 hPa 0 mm - 175 W/m² -
1788533411 31.67° C 84% 1012.8 hPa 0 mm - 553 W/m² -
1788533107 32.22° C 85% 1012.7 hPa 0 mm - 521 W/m² -
1788532803 31.67° C 86% 1012.5 hPa 0 mm - 378 W/m² -
1788532498 32.22° C 85% 1012.7 hPa 0 mm - 176 W/m² -
1788532195 31.67° C 87% 1012.5 hPa 0 mm - 403 W/m² -

* Rain latest hour (hover to see other rain measurements)
** Current wind speed in m/s (hover to see current wind gust speed)